Theta_e
351 351 352 351 351 349 349 349 348 349 349 348 346 345 347 347 346 348 347 348 348 347 347 345 346 346 345 345 345 347 348 348 347 346 347 347 347 347 345 343 340 338 341 342 343 342 341 341 342 342 341 340 340 340 340 339 337 336 336 336 336 335 335 335 335 335 335 334 334 334 334 334 334 334 334 333 333 333 333 334 335 336 336 336 336
351 351 351 352 349 349 349 349 348 350 350 349 347 345 346 346 346 347 347 346 346 346 345 342 343 344 344 345 344 345 348 349 348 347 348 348 347 348 347 346 342 339 339 341 343 343 343 342 341 342 341 341 341 341 341 340 339 339 338 338 338 337 336 335 336 335 335 334 334 334 334 333 333 333 333 333 334 334 333 333 334 334 334 334 334
351 351 351 350 347 347 348 348 349 349 350 349 347 346 346 347 347 346 346 345 345 344 342 340 342 343 342 342 343 343 345 347 348 348 348 348 347 348 348 346 344 340 339 339 341 342 343 343 343 343 343 342 343 342 342 341 341 341 341 340 340 339 338 337 335 335 335 334 334 333 333 333 333 333 332 332 333 333 333 333 333 333 333 333 333
348 349 348 348 347 347 347 348 348 348 349 349 347 346 346 347 347 346 345 345 344 342 341 341 342 341 338 339 341 342 342 343 346 348 348 347 347 348 348 347 345 344 342 339 339 340 342 343 343 343 343 344 344 343 343 342 341 342 342 342 340 338 337 336 335 334 334 334 335 334 334 334 333 332 331 331 331 332 333 333 333 333 333 333 332
345 346 345 345 346 347 348 347 348 349 349 348 346 345 346 347 346 345 345 344 343 342 342 342 340 338 335 335 338 340 341 341 343 346 348 348 347 347 347 348 347 346 345 342 339 338 340 342 342 341 341 342 343 344 343 343 342 342 341 341 339 337 337 336 336 336 335 335 335 335 334 334 333 332 332 331 330 330 331 333 333 334 333 333 332
345 346 345 344 344 347 348 348 349 348 347 347 343 343 345 343 342 343 343 343 344 342 340 340 337 336 336 335 335 336 338 340 341 342 344 347 347 346 347 347 347 347 346 344 342 339 338 339 339 339 338 339 341 343 343 343 341 340 341 341 340 339 339 338 338 338 337 337 336 336 335 334 333 333 333 333 332 331 330 331 332 333 334 334 333
346 344 344 343 344 347 349 349 350 346 345 346 343 341 342 340 340 339 338 340 342 339 335 335 336 337 339 338 337 337 337 338 340 341 342 344 346 347 348 347 347 347 345 344 344 342 340 340 339 339 338 338 339 341 342 341 339 340 341 341 341 340 340 339 339 339 339 338 338 337 337 336 335 335 335 334 334 333 332 331 331 331 332 333 333
346 345 342 342 345 348 350 350 349 346 345 343 339 341 344 344 342 337 338 339 333 332 333 335 339 340 339 339 340 340 338 337 338 340 342 343 344 346 348 347 347 346 345 344 344 343 343 343 342 341 340 339 339 339 341 340 339 340 341 341 341 340 339 339 338 338 339 339 339 338 338 337 337 337 336 336 335 335 334 333 332 331 331 331 331
346 345 343 342 345 349 352 350 347 346 344 338 337 343 344 343 342 340 340 333 325 332 339 339 341 340 338 340 341 340 340 340 338 339 342 343 344 345 346 347 347 347 346 345 345 345 345 344 344 342 341 340 340 340 341 341 341 341 340 341 341 340 340 340 338 336 338 339 339 339 339 338 338 338 338 338 338 337 336 336 335 334 332 332 331
346 344 344 344 347 349 351 350 347 344 339 335 340 344 342 338 338 338 331 323 325 336 341 339 338 338 340 341 341 339 338 340 341 340 340 341 344 345 346 347 345 346 346 345 346 346 345 344 344 342 341 341 340 340 341 341 342 342 341 340 340 340 340 340 339 338 338 338 339 339 339 339 339 338 338 338 339 339 339 338 338 337 336 335 334
346 344 346 347 349 350 349 348 345 341 335 336 341 343 342 337 330 326 322 324 332 336 337 335 335 339 341 341 341 338 334 336 338 338 337 339 342 344 346 346 346 346 346 345 345 346 344 344 344 342 342 341 340 340 341 340 341 341 341 340 339 340 341 340 340 339 339 339 339 339 339 340 340 339 338 338 338 339 339 339 339 339 339 338 337
347 346 347 348 349 348 347 345 342 340 336 336 338 337 336 330 320 317 324 334 338 339 339 335 334 340 341 340 341 338 333 333 334 336 339 340 341 344 345 345 345 345 345 345 345 345 344 344 344 343 343 342 340 340 340 340 340 341 341 341 340 339 341 342 341 341 341 341 341 341 340 340 341 340 339 339 339 339 339 338 338 339 339 339 339
348 349 349 349 348 347 345 342 341 341 335 333 333 328 323 319 318 325 333 336 337 342 343 336 336 342 341 342 344 339 334 334 335 337 340 341 340 342 342 342 342 343 343 343 343 343 342 343 343 342 341 340 340 340 340 341 341 340 340 340 340 340 340 341 341 341 341 342 342 341 340 340 341 341 341 341 340 340 339 339 338 338 338 338 339
350 350 349 349 347 346 344 338 337 338 333 330 327 320 318 319 327 337 339 336 337 339 337 335 341 344 341 341 342 341 338 337 339 339 339 339 339 339 339 339 340 340 340 340 341 342 342 343 342 337 335 336 338 339 339 340 340 339 338 339 339 340 340 340 340 340 340 341 341 341 341 340 340 341 341 342 341 341 340 340 339 339 339 338 337
350 350 349 348 348 346 342 339 337 334 331 328 321 318 322 327 336 342 340 339 340 338 334 331 336 339 338 339 341 342 341 339 340 339 338 338 338 338 337 338 339 337 338 340 340 340 339 338 335 331 331 332 335 337 337 338 338 337 336 336 336 337 338 339 340 340 340 340 340 341 341 341 341 340 340 341 341 341 341 341 340 340 339 338 338
350 350 349 349 348 345 342 341 338 334 330 321 316 324 330 331 338 340 338 342 343 341 337 331 329 332 337 341 341 342 341 340 340 337 337 337 336 337 335 335 336 332 334 337 334 337 338 332 325 325 328 331 331 332 334 334 334 334 332 332 333 334 335 336 336 337 338 339 340 341 341 341 341 341 341 341 341 341 341 341 341 341 340 340 339
349 349 349 349 347 344 342 342 339 332 325 316 321 336 338 336 339 338 337 341 343 341 338 333 329 329 334 338 339 342 342 340 340 338 338 338 336 336 334 332 331 326 328 330 327 333 338 332 323 321 324 327 327 325 324 325 325 325 323 323 324 326 326 327 328 330 332 335 336 338 340 340 341 341 341 341 341 342 341 341 341 340 340 340 340
348 347 349 348 345 343 343 344 342 334 321 318 328 336 337 338 339 337 337 340 339 338 338 335 333 329 332 336 338 340 340 338 340 340 337 338 337 335 333 331 330 326 328 331 330 332 335 333 327 322 321 321 321 319 318 317 317 317 317 317 317 318 318 319 320 321 323 326 329 331 334 336 338 339 340 341 341 341 341 341 341 340 340 340 340
348 347 348 348 345 345 344 343 344 340 324 319 327 333 336 339 340 339 337 336 333 334 338 338 336 334 333 337 339 338 335 333 338 341 338 336 336 335 334 332 331 328 328 331 332 331 331 332 331 327 324 323 321 320 319 318 317 317 316 316 316 316 316 316 316 316 317 318 320 322 324 327 330 333 335 338 339 340 340 340 340 340 340 339 339
349 348 348 347 346 346 342 339 343 342 326 318 328 337 340 339 340 340 336 332 330 333 338 337 337 339 335 336 339 337 334 330 329 335 337 338 337 335 333 332 331 330 328 329 330 328 326 329 331 328 327 328 327 325 323 321 319 319 319 319 319 319 318 318 317 317 316 315 315 316 317 318 320 323 325 328 332 334 337 338 339 339 340 340 339
349 348 347 348 348 345 339 335 338 338 328 325 333 339 340 338 338 337 333 332 332 333 336 335 336 340 338 337 336 335 334 330 326 329 331 335 336 335 334 332 330 330 330 329 329 328 327 327 328 328 329 330 330 330 328 325 322 320 320 320 320 320 320 319 319 319 318 317 316 315 315 315 316 317 318 320 322 324 328 331 335 338 339 340 340
347 347 348 348 348 343 336 330 328 331 329 333 340 338 333 334 336 336 336 336 333 332 334 335 335 335 334 333 333 335 336 334 333 334 332 332 334 335 334 332 331 332 332 330 329 328 328 329 327 327 329 330 330 330 330 329 326 322 320 320 321 321 320 319 319 319 319 319 318 317 316 315 314 315 315 316 317 318 320 322 325 330 334 337 339
344 347 348 347 344 339 336 332 326 325 326 332 342 340 332 332 335 336 339 338 334 332 332 333 332 330 328 327 329 334 337 336 337 337 335 334 335 336 334 332 333 334 332 331 330 329 328 328 328 327 328 328 329 329 330 329 327 324 323 321 320 320 319 319 319 319 319 319 319 318 317 316 315 315 315 315 316 316 317 318 319 321 324 328 333
345 348 347 344 342 336 336 337 329 324 325 325 333 337 337 338 337 335 336 335 335 333 331 332 333 331 331 331 331 333 334 334 335 336 335 333 333 334 333 333 335 334 333 332 331 330 328 328 328 328 329 329 329 329 329 328 325 325 327 324 321 320 320 319 319 320 320 319 319 319 318 317 316 315 315 316 316 317 317 318 318 318 319 321 323
346 347 345 343 343 336 330 332 327 324 328 326 322 328 336 342 340 334 333 335 335 333 332 334 335 334 336 337 336 335 336 334 332 333 335 334 332 331 330 333 334 333 333 332 331 330 330 329 329 329 330 329 329 329 328 327 325 325 328 326 322 320 319 320 320 321 321 320 319 319 318 317 316 315 315 316 317 317 318 318 318 318 319 319 319
342 342 341 344 345 338 326 324 322 321 326 326 322 323 329 338 339 333 333 337 335 332 332 335 336 335 334 335 335 335 336 336 334 332 333 335 335 334 333 333 331 330 332 332 331 331 331 330 329 328 329 329 329 328 328 327 326 326 327 325 321 320 320 321 320 321 321 321 320 319 318 317 316 315 315 315 316 317 318 318 318 318 318 318 319
341 339 340 345 347 340 328 320 317 318 321 322 322 320 320 330 336 331 332 336 334 331 332 335 337 337 334 332 333 335 336 336 335 334 333 333 334 334 333 332 330 331 333 334 333 331 330 331 329 328 328 329 329 328 328 327 327 326 326 324 322 321 321 321 320 321 321 321 321 320 319 317 316 315 315 315 316 317 317 318 318 318 318 318 318
344 342 340 343 346 343 331 320 315 316 318 318 318 319 318 322 328 328 330 336 336 332 331 333 336 339 338 336 334 333 336 337 335 336 335 333 332 332 331 331 332 333 333 334 334 333 332 331 331 331 329 329 329 328 328 327 326 325 325 325 324 324 324 323 322 322 322 322 322 321 320 319 318 316 315 316 316 317 317 317 318 317 318 318 318
348 347 343 341 342 340 331 320 315 315 316 317 317 319 322 322 324 325 326 334 338 334 330 329 333 337 339 339 336 332 332 334 333 333 333 332 331 332 331 332 333 333 333 333 333 333 333 331 331 332 331 330 330 329 329 328 327 327 327 327 326 324 323 322 321 322 322 322 322 322 321 320 319 318 316 316 317 317 317 318 318 318 317 317 318
350 349 346 341 336 334 328 318 315 315 315 318 317 319 323 325 324 325 324 329 337 337 332 327 328 335 338 338 339 336 332 332 331 331 331 331 331 332 332 332 332 332 332 332 332 330 330 329 330 331 332 332 331 331 330 329 328 329 330 331 329 325 322 321 321 321 321 323 323 322 320 320 320 319 317 316 317 317 317 318 318 318 317 317 317
348 349 346 341 333 330 326 319 316 317 316 317 317 318 321 324 325 325 322 324 332 335 332 325 325 333 338 338 338 337 334 332 331 331 331 331 331 332 334 334 334 333 332 333 333 330 329 329 329 331 332 331 331 331 331 331 330 329 329 330 330 328 326 324 322 322 322 323 323 323 321 320 320 320 318 317 316 317 317 318 318 318 317 317 317
348 348 345 341 334 328 324 319 317 318 318 317 317 318 320 323 325 325 322 322 324 326 325 323 327 334 337 338 337 334 330 328 329 330 330 330 329 330 334 336 336 336 335 334 333 331 329 329 330 331 332 332 331 331 331 331 330 330 329 328 328 328 326 324 325 327 326 325 325 326 325 324 322 321 320 318 317 317 317 318 318 318 318 318 317
347 348 344 340 336 328 322 319 317 318 318 317 318 319 319 320 323 325 328 327 322 320 320 322 330 337 338 338 336 330 325 326 329 331 330 329 329 329 332 334 334 334 334 333 332 331 330 330 331 332 332 332 331 330 331 331 330 330 330 329 328 327 324 324 327 329 328 328 328 329 329 327 325 322 321 320 319 318 318 318 318 317 317 318 318
348 347 343 339 337 331 323 319 318 318 319 319 318 318 319 319 320 322 328 333 329 323 321 322 328 335 337 336 332 326 323 324 326 327 326 328 331 333 333 333 333 332 331 332 332 332 331 330 331 332 332 332 331 331 331 331 331 330 330 330 329 325 323 325 327 328 328 328 328 327 327 325 323 322 322 322 320 319 318 318 318 317 318 318 318
350 348 344 340 336 331 325 321 320 319 318 319 319 320 318 318 320 319 322 331 331 325 321 321 324 331 335 335 330 325 324 324 324 325 325 325 329 332 333 332 332 331 331 331 331 331 329 328 329 330 331 331 330 330 330 330 330 330 330 329 328 324 323 326 328 327 326 327 327 326 325 323 322 323 323 323 322 321 320 319 318 318 318 318 318
351 349 345 341 337 332 327 322 321 319 317 318 320 321 319 317 320 320 320 323 325 321 318 318 323 331 335 335 332 330 330 327 325 325 325 324 325 328 329 328 328 329 330 330 330 330 328 327 327 328 328 329 329 329 330 330 329 329 329 328 327 325 324 325 326 326 326 327 327 326 326 325 324 324 324 324 323 323 322 321 320 320 320 320 319
352 349 346 343 340 335 328 322 319 318 317 318 319 320 319 318 318 320 320 320 320 319 318 320 327 335 338 337 337 336 335 332 327 324 324 324 325 328 329 329 329 329 330 331 331 331 330 328 326 327 328 329 330 329 330 330 330 329 329 329 329 328 327 326 326 326 327 327 327 327 327 326 324 324 325 326 325 324 324 323 322 322 322 322 321
352 349 346 344 343 338 329 321 319 319 317 317 318 318 318 318 319 319 320 320 320 319 319 320 328 335 338 338 337 335 334 333 328 324 323 324 327 330 332 332 332 332 333 333 333 333 332 330 329 328 329 329 330 330 330 330 330 330 330 329 329 328 328 328 327 327 327 327 326 327 327 326 325 324 325 325 325 325 324 323 323 322 321 321 321
352 352 349 345 343 340 333 324 320 318 317 316 317 318 318 318 319 319 320 320 320 320 320 319 324 332 336 335 333 332 332 332 330 327 326 327 328 330 332 333 334 334 335 334 334 334 333 333 331 329 328 329 329 330 330 330 330 330 330 330 329 328 327 328 328 327 326 325 325 325 326 326 325 324 324 324 325 325 324 323 322 321 321 321 320
353 354 353 348 343 341 337 328 321 317 316 316 316 317 318 318 318 319 320 320 319 319 320 318 322 332 337 336 335 335 335 334 332 331 330 330 330 330 331 332 334 336 336 335 334 334 334 333 332 330 329 329 329 329 329 329 330 330 329 329 329 328 328 328 328 328 327 325 324 324 325 325 325 324 324 324 324 323 323 322 321 320 320 320 318
354 354 355 351 345 342 339 332 324 318 315 316 316 317 318 317 318 319 319 319 320 319 322 325 329 335 338 339 338 338 336 335 334 333 333 333 332 330 330 330 332 335 336 335 334 334 333 332 331 331 330 330 329 329 329 329 329 329 329 329 329 328 328 329 328 327 326 325 324 324 324 325 325 325 325 324 324 323 322 320 320 320 320 319 316
355 354 354 352 348 343 341 336 327 320 316 316 316 317 318 317 318 319 319 319 319 319 324 330 334 337 339 338 338 337 336 336 335 334 333 333 332 331 329 329 329 331 334 335 334 333 332 331 329 328 329 329 329 330 330 329 329 329 329 328 328 328 328 328 328 326 325 324 325 324 324 325 325 325 324 324 323 322 320 318 318 319 319 318 316
357 355 354 353 349 345 343 339 330 322 318 317 317 318 318 317 318 319 319 319 319 320 326 331 332 334 337 337 337 338 337 336 335 334 334 333 332 332 331 330 329 329 330 331 331 330 330 330 328 328 329 329 329 329 329 329 329 329 328 328 328 328 328 327 326 324 324 325 326 325 325 325 324 323 322 321 320 319 318 318 319 319 319 318 317
357 357 355 353 350 347 345 341 333 325 320 317 318 319 318 317 318 319 319 320 320 320 325 329 330 332 336 337 337 338 337 336 335 335 334 334 334 333 332 332 331 330 329 328 327 326 326 326 327 327 328 328 328 329 329 328 328 328 328 327 327 326 326 325 325 324 324 325 326 326 325 322 321 320 319 319 319 319 319 320 320 321 320 320 320
357 357 355 352 350 347 344 342 337 328 321 318 318 319 318 318 318 318 319 320 321 322 325 329 329 331 335 338 337 337 337 336 335 333 333 334 334 334 333 333 333 332 331 330 330 329 327 327 327 327 328 328 328 329 328 328 327 327 327 327 326 325 325 324 324 324 323 322 323 323 321 320 319 320 320 320 321 322 322 321 322 322 322 322 322
358 358 355 351 349 346 344 342 339 332 325 321 319 320 319 318 317 318 319 320 322 323 325 328 329 330 334 338 338 338 337 336 335 334 334 335 335 335 334 334 334 333 333 333 333 332 331 331 331 331 331 330 329 329 329 329 328 326 326 327 326 325 323 323 322 322 321 320 319 320 320 320 321 322 323 323 322 322 322 322 322 323 322 322 322
358 357 355 351 347 344 343 342 340 336 331 327 323 320 318 318 317 317 319 320 322 323 323 325 328 328 329 334 337 337 336 336 336 336 336 336 336 336 336 335 334 334 333 333 334 333 333 333 333 332 332 332 330 330 329 329 328 327 327 327 325 323 321 321 321 320 320 321 321 322 323 323 323 323 324 323 322 322 322 322 322 322 321 321 321
358 357 355 352 347 343 342 342 341 339 336 333 327 321 318 319 318 318 318 319 320 322 323 325 324 322 324 331 335 336 336 336 336 337 337 337 337 337 336 336 335 334 333 333 334 333 333 334 333 332 332 331 330 330 329 328 328 327 327 326 324 322 321 321 321 321 322 323 323 324 325 324 323 323 323 322 322 321 321 321 321 320 320 319 318
358 357 355 353 349 346 344 342 342 341 339 337 331 323 319 320 320 320 319 319 319 321 325 326 322 321 327 333 335 336 337 337 337 336 335 335 335 335 335 335 335 333 332 333 333 333 333 332 332 331 331 330 330 329 328 328 327 327 326 324 322 321 322 322 323 323 324 324 324 323 323 323 322 322 322 321 320 320 320 320 319 318 318 317 315
358 356 355 353 350 349 346 344 343 342 340 338 332 324 321 323 323 322 323 324 324 324 326 326 323 323 327 330 332 332 332 334 335 334 332 330 329 331 332 332 331 331 330 330 331 331 331 331 331 330 330 330 329 329 328 328 328 326 324 323 322 323 323 324 324 325 324 323 321 321 321 322 321 321 320 320 319 318 318 318 317 317 316 314 312
357 356 355 353 351 349 348 346 345 343 341 339 331 325 325 325 323 325 329 331 329 327 328 327 323 323 325 327 328 327 323 326 334 335 332 329 328 329 331 330 329 329 328 327 328 329 329 330 330 329 329 328 328 328 328 327 326 325 325 325 325 325 325 324 324 324 323 322 320 320 321 320 320 319 318 317 317 317 317 317 317 316 312 311 313
Wind_Speed
5 5 3 4 6 6 4 5 7 5 6 6 5 5 5 7 7 6 5 6 7 6 5 5 6 7 8 9 8 4 4 5 5 4 5 7 6 7 7 6 6 5 4 4 3 3 4 6 6 6 7 10 12 13 13 12 11 10 9 9 9 8 7 7 7 7 7 7 7 7 7 7 7 7 6 6 5 5 6 6 6 6 6 6 6
6 7 7 8 7 8 6 5 7 6 6 6 6 6 6 7 7 6 7 7 5 5 5 5 5 5 5 8 10 6 4 4 5 4 5 7 6 6 8 7 7 6 5 5 4 3 3 4 5 6 7 9 11 12 14 14 13 12 11 10 10 9 8 8 8 8 8 8 9 9 9 9 8 8 7 7 7 6 7 7 7 7 7 7 7
9 9 10 10 8 7 7 6 6 6 5 6 6 7 7 7 7 6 6 6 4 4 4 6 8 7 5 6 9 10 6 3 4 3 5 8 6 5 7 7 8 7 5 5 5 4 4 3 4 5 6 8 10 11 13 14 13 12 11 10 10 8 8 10 10 11 11 10 10 10 10 10 10 9 9 9 8 8 8 8 8 8 8 7 7
10 9 9 9 7 6 7 7 8 7 6 6 7 7 6 6 6 6 5 5 5 6 6 8 8 5 5 5 6 9 10 8 3 2 4 7 6 5 6 7 7 7 6 5 5 5 5 4 4 4 5 7 8 10 11 11 11 10 10 10 10 9 9 11 12 12 13 12 11 11 11 11 10 10 10 10 10 10 10 9 9 9 9 8 8
10 9 9 8 7 7 6 7 8 8 6 6 6 6 5 5 6 6 5 5 8 9 7 7 6 6 6 5 4 4 7 10 7 3 4 4 5 5 6 6 7 7 7 6 5 6 6 5 5 5 6 6 7 9 9 8 8 8 10 11 11 10 11 11 11 11 12 13 12 12 12 12 12 11 11 11 11 11 11 11 11 10 10 9 9
9 7 8 7 7 7 7 7 6 7 7 5 4 5 5 5 5 6 5 6 7 6 5 6 7 7 7 6 5 4 4 4 6 8 5 3 4 4 6 7 7 8 7 6 5 5 6 6 6 7 8 7 7 7 7 6 7 8 9 11 11 11 12 11 11 12 12 13 13 13 13 12 13 12 12 12 11 11 12 12 12 12 12 11 10
8 6 6 6 6 7 7 6 6 7 6 4 4 5 6 7 6 6 5 4 2 3 5 6 6 7 7 7 6 4 4 2 3 8 8 5 2 3 6 6 6 8 8 7 6 6 6 6 6 7 8 8 7 7 7 5 5 7 9 10 11 11 12 12 12 13 14 15 14 14 14 14 13 13 13 12 12 12 12 12 12 13 13 13 12
6 5 5 5 6 7 7 6 5 6 4 3 5 6 7 7 8 8 5 5 4 4 6 6 6 4 3 7 8 4 4 2 1 4 7 7 5 2 4 5 6 7 7 7 6 6 6 6 7 8 8 7 7 6 7 7 5 6 8 9 10 11 12 12 12 12 14 15 15 16 16 16 15 14 14 14 13 13 13 12 12 12 13 13 13
6 4 4 4 5 6 6 6 5 4 4 5 6 4 3 5 8 7 5 7 5 4 4 4 4 8 4 5 6 4 3 2 1 3 3 5 7 5 3 4 5 6 6 5 5 6 7 7 7 7 7 7 7 6 7 8 7 6 8 8 8 9 11 12 12 12 12 14 15 16 16 16 17 17 16 15 15 15 14 14 13 13 12 12 13
6 4 4 4 4 4 6 7 5 3 5 6 6 4 6 7 6 6 7 7 2 1 4 6 7 6 3 5 7 8 4 2 3 5 3 1 5 6 3 3 4 5 6 4 5 6 6 7 6 6 6 6 6 5 6 8 7 7 8 8 8 8 10 12 13 12 12 12 14 15 16 16 17 18 18 17 17 17 16 16 15 14 14 13 13
6 4 4 5 4 4 5 6 5 5 6 5 2 3 7 8 7 7 6 4 1 0 3 4 3 3 3 4 6 7 5 3 3 4 2 1 3 4 2 4 4 3 4 4 5 6 6 6 6 5 5 4 4 4 5 6 6 6 6 7 7 7 8 10 12 12 12 12 12 14 15 15 16 17 18 18 18 18 17 17 17 16 16 15 14
5 4 4 4 4 5 5 4 4 5 6 2 3 6 8 9 8 5 3 2 2 6 5 3 3 3 4 3 4 5 4 2 2 4 5 3 4 3 2 4 4 3 3 4 5 6 5 5 5 5 5 4 4 4 4 4 4 4 4 5 7 7 8 9 10 10 11 12 12 13 14 15 15 16 17 19 19 19 19 18 18 18 17 17 16
5 4 5 4 5 6 5 3 2 4 5 4 6 8 8 8 4 2 1 1 4 4 5 4 4 5 6 4 3 6 6 4 5 7 5 3 5 5 5 5 6 5 4 4 5 6 6 5 4 4 4 4 4 3 4 4 3 3 2 3 4 6 7 9 10 10 11 12 13 14 15 15 15 16 17 18 19 19 19 19 19 19 18 18 18
6 5 6 6 6 6 5 4 3 5 6 6 9 8 6 3 2 1 2 3 3 0 5 3 3 5 2 1 3 5 6 5 5 4 2 2 5 6 6 5 4 4 4 4 4 2 4 5 4 4 4 4 4 4 5 4 3 3 2 2 3 4 5 7 9 11 13 14 14 14 15 15 15 15 16 17 18 18 19 19 19 19 19 19 19
6 6 7 7 6 5 5 4 4 6 6 6 9 6 2 2 3 1 1 1 3 2 2 3 3 4 3 3 4 4 3 6 6 4 2 2 2 2 3 3 4 3 2 1 2 2 4 4 4 4 3 3 3 3 4 3 3 4 4 3 3 4 4 6 7 9 11 13 14 15 15 16 16 16 16 16 16 17 18 18 19 19 19 20 20
7 7 7 7 6 5 5 5 5 6 6 7 6 3 2 2 2 1 4 1 1 1 3 4 4 2 2 4 3 2 2 5 6 5 3 2 2 2 2 1 5 4 0 3 3 2 5 6 5 4 3 3 3 3 3 3 3 3 5 6 5 5 5 6 7 8 9 10 11 13 14 15 15 16 16 16 16 16 17 17 18 19 20 21 21
8 8 8 8 7 6 6 6 6 6 6 6 2 2 1 1 1 1 4 2 1 1 4 5 4 3 1 2 1 3 1 2 3 4 3 4 3 1 2 3 6 5 1 3 3 4 4 8 7 5 4 3 3 4 4 4 5 4 5 6 7 8 7 6 7 8 10 11 11 11 13 13 14 15 16 16 16 17 17 17 18 18 19 20 21
9 9 8 8 8 7 7 5 5 6 5 4 4 5 4 3 2 3 3 5 4 4 2 5 5 4 3 4 3 2 1 1 3 2 2 4 4 1 3 5 9 5 4 5 6 5 3 7 9 6 5 4 4 5 5 5 5 6 6 6 6 7 8 8 6 6 8 10 11 12 12 13 14 14 15 16 16 16 17 18 19 19 19 19 20
10 10 9 8 7 7 7 5 5 7 6 4 5 5 4 5 3 5 5 6 6 5 2 3 6 4 2 3 2 2 1 0 2 3 2 2 4 1 2 3 8 6 6 5 3 3 2 3 8 8 7 8 7 7 6 5 5 6 7 8 8 8 9 10 9 8 7 8 9 10 11 12 13 14 15 16 17 17 17 18 19 19 20 20 20
10 10 9 8 6 6 7 6 8 8 6 4 7 7 5 7 7 7 6 6 7 7 6 2 2 3 0 3 3 2 1 1 0 3 2 1 3 2 2 3 4 5 5 4 3 5 4 2 4 7 8 9 8 8 9 10 9 8 10 11 10 10 11 11 11 11 10 9 9 10 10 10 11 12 13 15 16 17 18 19 19 20 20 20 21
11 10 8 7 8 8 8 8 9 9 6 4 5 6 8 9 8 7 5 5 6 7 6 5 3 2 1 2 2 0 2 2 1 0 0 1 3 3 3 4 2 3 1 3 2 6 7 6 4 4 6 8 8 7 9 12 13 12 12 13 13 13 12 13 13 13 13 12 12 12 12 12 11 11 12 13 14 16 17 18 20 21 21 21 21
11 11 9 10 12 12 10 10 9 9 7 7 4 7 8 7 6 5 4 5 5 6 6 5 6 5 4 5 2 2 1 2 2 2 1 1 1 3 5 3 3 4 4 3 5 2 4 7 7 4 3 3 4 7 9 11 14 15 14 14 13 13 13 14 14 14 14 14 14 14 14 14 14 13 13 13 13 14 15 16 18 20 22 23 23
12 12 13 13 14 13 11 10 8 8 8 10 9 8 5 4 4 5 7 6 5 6 7 6 8 7 4 4 3 2 3 3 1 2 2 1 3 6 6 3 2 3 3 7 10 9 6 7 8 6 7 10 10 11 12 13 14 16 15 14 14 13 14 14 15 15 15 15 15 15 15 15 15 15 14 14 14 14 14 15 16 17 19 22 24
13 13 13 12 13 13 12 11 9 8 9 10 12 9 5 4 5 6 8 7 6 6 6 5 5 4 3 1 1 0 3 5 5 2 3 5 6 9 7 5 3 4 4 7 10 11 10 9 10 8 9 14 15 12 14 18 18 15 14 16 17 15 14 15 15 16 16 15 15 15 15 15 15 15 15 14 14 14 14 15 15 16 17 19 21
16 16 14 12 15 14 11 12 10 9 9 8 9 10 10 7 8 9 8 8 7 7 6 6 5 4 5 3 5 4 3 6 8 5 4 6 7 6 6 6 7 6 6 8 9 11 11 9 11 10 10 14 16 16 18 20 19 15 14 17 19 18 17 17 17 17 16 15 15 15 15 15 15 16 16 15 14 13 14 14 14 15 16 17 18
18 19 16 15 18 16 11 12 11 9 11 9 8 10 14 14 12 11 9 8 9 9 7 7 7 7 8 8 8 7 6 7 8 7 7 7 5 5 7 9 10 8 7 9 10 10 10 9 10 10 10 13 16 18 19 20 19 18 18 18 18 19 18 17 17 17 16 15 15 15 15 15 16 17 17 17 16 15 14 14 14 14 15 16 16
20 19 18 19 20 17 12 12 11 10 11 11 10 10 13 16 15 12 10 9 8 9 8 7 8 9 8 9 9 8 8 8 6 5 7 8 8 8 9 10 9 8 8 9 10 10 9 9 10 9 11 14 15 17 19 20 19 20 20 19 17 17 17 17 17 17 17 17 16 15 15 16 16 17 18 18 17 17 17 16 15 15 15 15 16
19 18 19 20 21 19 14 11 11 11 11 11 11 11 11 15 16 13 11 10 8 8 9 8 9 9 9 9 9 9 8 8 7 8 9 10 9 9 9 8 8 8 8 9 10 10 9 9 10 9 11 13 16 18 19 20 20 20 18 18 18 17 17 17 17 17 18 18 16 16 16 17 17 18 18 19 19 19 19 18 17 17 16 16 16
19 18 19 20 21 21 17 12 11 12 11 11 11 12 11 12 14 13 12 12 10 10 9 9 9 9 10 10 10 10 9 10 11 11 11 11 9 8 8 8 8 10 10 10 11 10 10 9 9 9 11 14 17 19 20 21 21 19 17 17 18 18 17 18 18 18 19 19 19 18 18 19 19 19 19 20 20 20 20 20 20 19 18 17 16
22 22 22 20 20 21 18 14 13 12 12 11 11 12 12 12 12 12 11 13 13 12 11 11 10 10 10 10 11 11 10 10 10 10 10 10 9 9 9 9 10 11 12 12 13 13 11 12 10 9 11 14 18 20 20 21 19 18 18 19 18 17 17 19 19 20 20 20 20 20 20 20 20 20 20 20 21 21 21 22 22 21 21 19 18
25 25 24 22 21 21 19 16 15 14 13 13 12 12 13 14 13 11 10 12 14 14 12 11 11 11 11 12 12 12 11 11 10 10 10 10 10 9 9 10 11 12 12 13 15 15 13 13 13 12 13 15 16 17 18 20 20 19 19 19 19 19 19 19 19 19 20 20 20 21 21 21 21 21 21 21 22 23 23 23 23 23 23 22 21
27 27 26 24 22 21 20 18 17 17 16 14 13 13 14 15 15 13 11 12 14 15 14 12 9 9 11 12 13 12 12 11 11 11 11 11 12 11 11 11 11 12 13 13 16 17 15 14 14 15 14 13 14 15 16 19 19 18 18 19 19 20 21 21 19 18 20 20 19 20 20 21 21 21 21 22 23 24 25 25 25 25 24 24 23
29 30 28 26 24 22 21 20 19 19 18 16 14 14 14 15 16 15 14 13 13 13 14 13 10 10 12 14 14 12 11 11 11 11 12 12 13 13 13 13 14 14 14 14 16 18 17 15 14 15 14 14 15 16 16 17 17 17 18 20 21 22 22 21 18 18 19 18 17 19 22 24 24 23 23 23 23 25 26 26 26 26 26 25 25
31 32 29 26 25 24 22 21 21 20 19 18 16 15 15 15 16 17 17 16 14 13 13 13 13 14 15 15 14 12 11 12 12 13 13 12 13 14 14 15 16 16 15 14 15 18 19 18 16 15 15 15 16 16 15 15 16 15 17 21 23 22 20 18 17 18 18 18 20 21 23 25 24 23 22 22 23 23 24 26 27 27 27 26 26
33 33 30 26 25 25 24 23 22 22 20 20 18 16 15 16 17 17 18 19 18 14 12 12 14 15 15 16 14 12 11 12 13 13 13 13 13 15 16 16 17 17 16 16 16 19 21 21 19 17 17 17 18 18 17 17 17 17 18 22 22 20 18 17 19 21 19 18 21 22 21 21 21 21 22 21 21 21 22 24 25 26 27 27 28
34 34 31 28 27 27 26 25 24 23 23 22 20 18 16 16 16 17 18 20 20 17 13 13 14 14 15 16 15 13 12 13 13 13 14 14 14 16 17 17 17 18 18 17 18 19 20 21 20 20 19 19 19 19 19 19 18 16 17 19 19 19 18 18 21 22 19 18 21 22 21 22 23 23 22 21 22 22 23 22 22 23 24 25 27
35 35 32 30 31 30 28 27 26 25 26 25 22 19 18 17 17 17 19 20 20 18 15 14 14 15 15 16 15 14 14 15 14 13 14 14 15 16 17 17 17 18 18 18 18 18 19 21 22 21 21 21 20 20 19 19 19 18 17 18 19 21 22 22 23 23 21 21 21 21 22 25 26 26 25 25 26 26 25 24 22 22 22 23 24
37 37 35 34 34 33 30 29 29 27 27 26 23 20 20 19 18 19 20 20 20 18 16 15 16 17 17 18 18 17 17 17 16 15 15 15 17 17 18 18 18 18 18 19 18 19 20 21 22 21 21 21 22 22 20 19 19 20 19 18 20 21 23 23 23 22 22 22 23 23 25 27 27 27 28 29 30 30 28 27 25 24 24 25 25
38 39 38 38 37 36 32 31 30 28 27 27 25 23 22 20 20 20 21 21 20 18 17 16 17 18 18 19 18 17 16 16 17 17 16 16 17 18 19 19 19 19 19 20 19 20 21 21 21 21 21 21 22 22 21 20 20 21 21 21 21 22 21 21 22 23 24 25 25 26 26 27 27 28 28 29 30 30 29 28 28 28 28 28 29
36 34 35 39 40 37 35 33 31 28 28 28 27 26 24 22 21 22 22 22 21 20 19 18 18 18 18 17 17 16 16 16 17 18 18 17 17 18 20 20 19 20 21 21 20 20 21 22 22 22 21 21 22 22 22 22 21 21 21 21 22 23 23 23 24 25 26 26 27 27 28 29 30 30 30 29 30 30 31 32 33 33 33 33 33
32 29 31 38 41 39 37 35 32 30 29 30 30 28 27 25 24 23 23 23 22 21 20 18 18 17 17 17 16 17 17 16 17 19 20 20 20 20 21 21 21 21 22 22 22 22 22 23 23 24 23 22 22 23 22 21 21 21 20 21 23 24 24 25 26 26 26 27 28 29 29 29 30 32 32 32 32 32 33 36 37 36 36 35 33
33 31 33 38 40 40 39 36 34 32 32 32 32 30 27 26 25 25 24 23 22 22 21 20 19 18 17 16 16 17 17 17 18 21 22 23 24 24 23 22 23 23 24 25 24 24 24 25 26 26 25 24 23 23 22 21 21 21 21 22 23 24 25 27 29 29 28 28 29 30 30 30 31 33 34 35 36 36 38 40 38 36 35 32 30
35 35 37 38 39 39 39 38 36 35 34 35 34 31 28 27 27 26 24 22 23 22 22 21 20 19 17 17 17 18 18 18 19 20 21 22 23 23 23 21 22 24 26 28 29 28 28 28 27 27 27 27 26 25 24 24 22 22 22 22 23 25 26 29 31 31 29 28 29 31 33 33 34 37 39 40 40 39 39 37 35 32 31 29 28
37 37 38 39 38 37 37 38 37 37 36 36 35 32 28 27 27 26 23 22 23 23 23 22 21 18 17 17 17 18 18 18 18 18 20 22 23 23 23 22 21 22 25 27 29 30 30 30 30 30 30 30 30 29 27 26 25 25 25 25 26 27 28 29 31 31 30 30 30 34 37 37 37 40 42 40 37 35 33 31 29 28 28 27 27
36 36 37 38 37 36 35 36 37 36 36 36 35 30 26 26 27 25 23 23 24 24 23 21 19 18 16 16 17 18 18 18 18 18 20 22 23 24 25 24 23 22 24 26 28 28 29 30 32 34 34 33 32 31 29 28 27 27 27 28 28 28 29 30 31 32 32 32 34 38 42 41 38 39 38 34 31 30 28 27 26 26 27 27 28
35 35 36 37 36 35 35 34 34 35 36 37 34 28 25 26 26 24 24 24 24 23 21 20 19 18 16 16 17 19 19 19 19 19 20 21 22 23 24 24 23 24 25 27 28 28 29 31 34 36 36 34 32 30 28 27 27 27 28 28 28 28 30 32 33 33 33 33 35 38 42 40 35 35 35 32 30 29 27 26 27 27 29 30 30
35 35 35 36 35 35 34 33 33 34 35 35 32 28 26 26 24 23 23 23 23 22 22 22 21 19 17 17 19 22 22 21 20 20 21 21 21 23 25 25 24 25 26 26 27 29 30 31 32 33 32 30 29 28 27 26 26 26 26 26 27 30 32 33 34 34 34 33 31 31 36 37 33 33 34 32 30 30 28 28 29 29 31 32 32
32 33 32 33 35 35 34 33 32 32 34 34 30 25 24 23 22 22 22 22 22 22 22 24 22 19 17 18 21 24 23 21 19 19 20 20 20 23 25 26 25 26 27 26 25 26 27 27 29 29 27 25 25 25 25 25 24 24 25 26 28 29 31 33 33 32 31 30 25 25 32 36 33 32 33 32 31 31 30 29 31 33 34 35 36
31 30 29 29 32 35 35 33 32 31 32 33 29 24 23 22 20 20 21 22 22 21 23 24 21 16 16 18 21 23 22 21 20 20 20 20 20 22 24 25 26 26 26 24 23 23 23 24 25 25 24 24 24 25 25 24 24 24 26 27 27 27 29 30 30 29 28 26 23 24 31 34 31 30 31 29 28 30 31 33 34 36 36 37 36
30 29 28 26 29 32 33 33 32 31 31 32 29 25 25 25 21 18 18 19 19 18 19 20 18 15 15 16 18 19 19 19 21 21 20 20 21 23 23 23 24 23 22 21 20 21 22 22 22 22 23 24 23 23 23 22 23 24 26 27 26 24 25 26 27 28 28 26 23 22 25 28 26 25 26 28 30 33 34 35 35 36 36 36 36
28 27 27 27 28 30 30 29 29 29 30 30 27 25 26 24 20 18 18 17 16 14 13 15 17 16 13 13 16 17 16 17 21 23 22 21 22 23 23 22 22 22 21 20 20 21 22 22 22 22 23 22 21 21 22 22 23 24 25 25 24 23 24 25 26 27 28 27 22 19 22 26 26 26 28 31 35 38 37 35 35 36 37 37 36
Wind_Direction
247 250 247 253 261 274 281 282 289 301 308 310 319 322 320 321 316 308 312 309 307 319 329 336 354 349 332 329 330 313 287 284 280 270 254 262 277 295 304 310 314 314 298 285 275 266 257 245 241 235 226 222 223 225 225 222 220 225 226 221 218 220 222 223 221 218 216 215 219 219 219 220 222 228 232 234 232 235 237 239 247 247 246 254 260
238 245 246 251 256 267 273 277 284 290 301 308 309 307 303 312 318 310 304 312 317 314 325 346 23 21 338 329 333 324 285 271 286 287 272 271 266 277 295 306 312 311 299 287 275 271 276 272 263 250 239 229 226 226 227 226 221 219 223 225 222 218 219 229 234 234 232 228 225 225 226 226 226 230 236 239 240 240 241 242 245 250 251 255 263
227 240 249 261 269 268 276 282 285 289 296 305 312 312 305 314 324 316 311 324 326 325 350 23 40 29 338 325 323 323 322 289 271 280 293 289 280 280 293 308 312 309 304 295 285 281 281 286 291 277 261 247 238 233 230 230 227 225 225 229 235 231 223 224 226 228 231 231 231 230 230 231 230 230 234 238 242 242 243 245 245 249 256 261 267
232 244 254 267 280 279 281 288 293 297 298 302 316 320 317 328 328 330 335 331 349 11 18 24 24 352 319 326 321 331 336 326 311 294 297 284 277 289 299 310 312 310 318 312 295 288 283 281 287 289 286 274 260 248 242 239 236 237 237 237 243 242 234 230 226 223 224 225 228 231 232 236 236 234 234 235 238 241 241 243 246 247 251 257 265
243 251 264 273 284 287 291 301 299 299 305 308 319 326 334 344 336 342 350 357 17 20 15 4 340 298 287 283 277 314 331 333 338 314 295 283 282 298 303 309 313 314 320 320 311 296 285 282 287 295 298 296 289 273 260 257 252 247 239 235 239 238 236 238 238 235 232 230 230 232 232 233 235 235 235 236 237 239 240 240 244 247 249 251 255
249 254 270 279 287 290 293 306 298 296 313 321 332 342 343 345 343 342 348 18 22 1 354 335 315 319 315 298 281 272 288 323 326 312 311 301 288 300 305 309 317 318 318 322 322 307 296 293 294 299 303 301 302 292 275 269 267 258 244 237 241 242 240 242 241 241 238 237 238 239 239 236 235 236 236 237 239 240 242 243 243 246 249 251 250
252 257 272 284 289 287 293 307 303 307 321 321 331 350 354 345 336 334 342 3 349 325 344 332 344 6 349 342 356 337 303 268 300 315 313 309 298 288 302 308 313 312 310 320 321 313 311 309 308 308 307 306 303 298 285 277 272 261 252 246 245 243 242 242 241 241 237 235 238 239 242 243 241 242 241 240 241 242 243 244 246 246 248 251 251
249 255 272 284 285 287 296 301 300 314 324 329 351 15 14 348 324 330 336 319 330 9 1 358 7 341 292 357 8 349 324 315 306 310 304 320 327 276 287 298 301 305 304 311 313 316 322 315 315 315 307 303 298 295 292 289 282 260 252 249 248 245 244 244 241 242 241 238 238 237 240 243 243 243 244 246 246 246 245 245 247 247 248 250 252
245 249 267 279 282 287 292 295 308 324 323 344 8 22 345 305 306 322 326 319 348 34 342 323 289 265 262 356 334 280 294 347 297 270 287 339 328 299 287 286 292 306 309 310 311 319 330 326 326 323 309 300 292 285 283 286 284 272 263 254 251 248 244 243 239 241 244 244 242 239 238 240 242 242 243 246 248 249 250 249 249 250 251 252 253
250 253 265 272 268 269 277 291 313 314 326 4 26 355 301 284 285 298 311 316 320 165 252 250 256 273 320 340 304 287 280 217 226 247 220 213 315 310 302 310 317 324 323 322 327 332 335 337 342 336 317 307 300 286 276 283 284 280 275 267 260 253 245 240 237 237 239 240 243 243 242 241 242 244 244 245 247 250 251 252 252 251 252 253 255
250 247 252 259 254 256 268 287 307 309 337 27 75 281 285 285 292 295 304 297 229 326 270 253 285 326 336 292 279 293 289 246 252 265 249 229 314 326 346 346 349 4 346 333 346 0 359 354 358 356 349 333 313 299 292 296 297 289 277 268 264 258 251 245 240 239 238 236 240 246 248 246 245 245 245 245 246 248 249 250 251 251 251 253 254
249 241 243 249 252 261 268 289 316 319 334 7 218 253 271 285 297 293 280 241 70 30 348 329 12 6 3 352 283 309 337 343 0 35 46 17 318 330 41 359 350 17 3 346 357 9 4 355 358 6 12 353 322 315 326 335 325 306 282 266 260 252 248 248 247 244 242 239 241 247 250 252 251 248 247 246 246 247 248 248 249 250 250 251 251
239 230 238 243 254 264 267 279 295 292 307 306 278 280 284 285 278 256 303 16 74 47 306 312 27 8 6 18 301 328 10 46 43 46 56 15 339 4 36 31 19 11 350 1 15 8 352 342 350 4 357 336 329 336 353 4 346 316 287 278 266 250 244 246 251 252 250 249 249 251 253 254 255 253 251 249 249 250 250 250 249 250 251 250 250
230 219 232 243 253 260 264 258 231 266 297 303 292 294 290 262 149 114 5 29 62 35 266 268 10 344 326 159 255 313 14 71 81 48 57 33 15 20 35 43 26 358 353 12 34 14 331 324 331 343 331 315 328 354 9 22 1 344 335 308 287 270 261 254 255 256 256 256 255 255 254 255 255 255 256 255 254 254 253 253 252 251 251 251 251
231 227 233 241 250 250 254 253 244 280 307 300 294 306 296 170 131 165 188 64 19 2 312 267 288 300 233 224 249 255 30 94 131 114 70 46 62 84 56 26 313 322 45 348 273 274 301 320 341 345 346 321 314 345 3 11 2 1 358 334 310 289 280 271 267 265 263 261 258 257 256 256 256 256 257 258 258 258 258 258 257 255 253 252 251
225 229 234 237 243 241 240 246 258 285 298 286 289 325 356 101 104 192 162 148 312 292 311 305 299 306 228 264 262 193 85 95 134 143 121 69 97 95 36 343 297 300 270 258 274 352 338 346 18 27 28 7 321 316 318 325 338 348 336 322 317 302 289 283 278 276 273 269 265 261 260 260 260 259 258 259 259 259 260 261 260 258 256 255 253
223 227 233 233 230 228 228 239 267 287 291 282 215 144 281 60 332 262 151 197 212 179 298 323 333 325 345 326 26 95 73 66 104 162 152 114 119 48 346 352 339 319 313 351 13 60 0 346 17 34 34 45 359 341 346 350 346 350 343 327 321 315 310 306 291 284 280 275 274 268 265 263 262 262 262 261 261 260 260 261 260 259 258 258 257
223 225 226 233 226 212 215 224 261 277 280 261 176 162 174 160 260 269 190 215 181 135 282 324 343 328 25 22 13 34 244 130 87 156 157 135 175 348 38 17 7 26 88 39 25 56 40 346 0 14 18 23 3 356 12 21 12 7 6 359 349 340 337 338 330 313 297 286 283 278 273 270 265 263 262 262 263 262 262 262 262 262 262 261 260
221 221 219 231 225 211 224 217 223 252 264 230 169 135 146 160 204 246 217 205 186 156 193 329 346 328 48 67 329 329 316 145 109 144 123 142 216 231 107 340 358 52 89 70 34 32 62 13 358 354 358 1 351 346 345 349 3 358 352 350 347 343 339 339 339 336 328 315 305 297 290 284 277 272 266 264 263 262 262 262 263 264 264 264 263
216 218 219 225 225 226 241 221 205 235 253 198 153 138 186 202 199 223 217 192 193 175 164 163 356 326 3 147 213 270 20 346 122 149 122 130 222 215 196 291 347 88 89 42 343 353 18 56 11 346 337 345 344 336 328 321 326 333 333 332 328 325 324 322 323 324 324 322 317 313 309 302 294 286 278 273 268 265 263 261 261 261 262 263 263
216 222 222 212 223 233 238 223 205 219 229 166 152 180 207 213 209 217 212 192 199 183 171 183 182 182 226 227 224 90 53 38 32 157 254 226 206 215 250 271 239 186 281 345 350 16 4 323 322 331 319 342 356 342 326 317 317 324 326 322 319 317 316 315 316 316 315 314 311 309 308 307 305 301 294 288 281 275 269 265 262 260 260 261 261
218 217 207 197 220 238 238 227 207 209 201 142 166 239 216 200 215 221 212 206 195 178 176 203 222 225 237 247 226 98 52 33 25 326 281 301 253 243 272 264 218 256 285 238 221 284 327 298 310 328 269 293 327 312 306 303 308 318 320 315 314 314 313 312 313 313 313 313 311 308 306 305 305 304 303 299 295 290 283 276 269 264 261 260 260
223 215 213 211 228 239 230 224 211 204 189 157 180 232 220 192 213 212 215 213 189 189 196 207 232 240 224 226 206 165 230 237 302 315 247 252 270 257 285 316 218 270 269 220 239 274 279 260 283 300 263 264 280 285 287 290 298 310 313 309 310 312 311 310 311 311 312 312 312 310 307 305 305 305 304 302 300 298 294 289 282 275 269 264 261
218 213 225 232 231 226 212 217 220 203 187 176 186 196 194 236 251 222 212 208 199 209 215 211 228 220 164 191 284 270 269 242 224 281 288 269 258 250 279 326 296 288 289 254 263 288 289 261 265 286 278 276 280 276 281 293 300 304 306 305 309 314 312 310 312 312 310 310 311 310 307 305 303 302 302 302 302 301 300 298 294 288 281 274 268
215 217 232 234 222 217 209 215 222 207 195 194 194 180 171 203 243 233 208 202 213 217 211 205 209 188 164 201 249 238 283 272 246 230 243 273 287 269 268 284 277 280 289 278 277 286 289 272 265 277 276 269 277 286 293 300 303 302 297 298 305 312 312 311 311 309 306 305 305 306 305 302 300 298 297 298 300 301 301 301 300 297 292 287 280
225 229 230 223 222 223 216 215 219 210 205 205 203 190 178 188 219 229 209 202 215 217 210 206 215 217 202 208 224 218 219 252 258 243 222 235 271 275 260 264 269 275 283 285 285 283 288 291 278 272 268 267 277 289 292 294 299 300 297 297 303 306 305 303 303 303 302 302 301 300 300 299 298 297 296 297 299 301 301 301 302 301 298 295 290
232 232 220 214 225 229 214 210 217 211 210 212 212 211 200 197 209 215 201 203 218 220 217 212 219 234 235 226 223 219 224 238 249 257 247 233 232 242 252 261 268 275 282 287 285 279 282 299 300 275 261 268 274 278 283 289 295 298 296 296 299 300 298 297 298 299 301 302 301 298 296 296 295 294 294 295 297 300 302 302 302 301 300 298 295
231 225 213 210 221 229 221 211 216 213 212 216 215 220 217 206 206 205 192 195 218 226 223 221 218 228 244 249 241 226 224 234 228 225 242 247 242 244 250 255 263 271 278 279 281 281 277 289 301 280 260 267 277 283 288 292 294 296 293 292 298 301 299 297 295 296 299 302 302 297 294 294 293 291 290 290 293 295 298 300 300 300 300 299 298
223 220 217 216 220 228 230 219 215 216 215 215 215 217 218 207 201 201 189 187 210 230 232 231 224 225 237 246 255 251 234 233 237 234 241 252 256 255 255 256 257 262 270 272 274 277 273 274 285 283 276 281 287 290 291 292 295 297 294 293 298 298 295 295 295 295 297 299 298 294 291 290 290 288 285 284 287 289 292 295 297 298 298 298 298
219 221 223 225 226 228 231 225 218 220 217 214 213 213 216 210 199 197 191 185 200 223 235 237 231 227 234 236 245 257 253 250 257 261 263 267 266 262 263 264 261 261 265 268 272 277 278 279 280 279 282 283 284 287 289 291 296 297 294 292 292 292 294 296 296 295 294 293 292 290 288 288 288 287 284 281 281 283 286 290 292 293 294 295 296
219 223 225 229 231 229 229 227 222 221 219 215 215 211 212 216 206 198 199 193 198 214 227 233 230 226 234 239 241 247 252 256 258 263 269 275 276 272 268 266 265 268 267 265 270 277 282 282 279 275 275 279 284 287 288 290 295 298 298 293 287 289 294 296 296 295 293 289 289 290 289 287 285 283 281 279 278 280 283 285 287 287 289 290 293
220 222 228 234 237 235 230 226 223 223 221 216 217 213 210 214 213 208 211 209 207 213 222 225 222 226 238 244 247 249 253 257 258 260 265 270 274 273 267 264 263 265 267 266 270 279 284 284 282 281 278 278 281 280 279 284 293 301 305 301 295 296 298 298 298 296 295 295 296 298 296 291 285 280 278 277 277 278 279 281 282 282 283 285 287
221 222 230 239 243 241 232 224 222 223 223 217 217 220 216 212 212 212 213 216 214 211 216 219 213 218 234 241 246 252 257 261 263 266 269 272 274 273 269 267 267 267 269 272 275 282 286 286 285 286 285 281 280 280 279 282 291 302 305 303 302 302 300 298 295 291 294 297 295 292 291 290 288 285 283 281 279 278 277 277 278 279 279 280 282
223 225 232 240 244 241 233 226 221 221 223 218 215 222 225 215 210 211 211 213 215 210 207 212 212 216 229 239 245 250 254 258 262 267 272 272 270 270 269 269 272 274 275 276 276 279 285 287 286 285 285 284 283 284 280 277 281 285 287 290 295 301 303 300 295 289 287 287 285 284 284 286 290 292 291 289 286 283 281 280 279 279 278 277 278
224 227 232 239 244 241 234 227 221 221 223 219 216 222 226 219 212 212 211 209 213 216 212 213 216 219 228 237 245 250 253 256 260 265 270 272 269 269 268 267 270 272 272 271 270 274 282 287 287 285 284 284 284 285 281 278 275 266 264 276 289 299 302 297 290 287 285 288 293 295 293 293 296 297 295 295 293 289 286 284 283 281 280 278 277
223 228 232 236 239 237 231 227 223 224 226 222 217 221 226 222 214 212 213 212 216 221 222 221 220 222 229 238 246 252 255 259 264 268 272 275 274 273 273 274 274 274 272 268 268 272 280 287 291 292 291 289 290 290 289 289 287 274 261 269 282 290 290 287 284 285 288 288 291 295 297 299 301 299 295 294 294 295 292 290 286 284 283 281 280
221 228 232 233 233 231 229 231 231 228 227 224 219 221 227 223 215 214 215 217 221 223 222 220 219 223 232 241 246 248 251 258 267 273 275 276 276 275 276 278 277 278 277 273 271 272 275 283 290 293 293 292 292 293 294 294 294 290 277 269 273 277 278 280 283 286 287 282 281 285 289 292 296 297 294 292 293 295 296 294 291 288 288 288 287
222 229 233 233 232 231 230 234 235 231 227 226 222 221 225 223 215 215 217 219 223 225 224 222 222 225 231 237 242 245 249 256 263 270 273 273 273 272 273 274 274 275 274 272 272 270 270 277 286 290 291 292 293 293 294 292 290 292 290 282 276 275 275 277 281 285 286 284 283 282 282 286 290 291 290 289 290 291 292 293 294 293 292 291 291
224 230 234 234 233 233 233 232 233 232 228 226 225 221 222 222 218 217 218 219 222 224 225 226 227 230 233 239 246 251 254 258 265 272 274 272 270 269 270 272 273 272 268 267 268 267 268 273 279 285 289 291 291 290 288 286 284 286 289 289 288 288 287 286 285 287 289 291 291 289 288 290 291 290 289 288 288 290 292 294 296 296 294 293 294
224 227 232 235 234 233 233 231 231 233 229 226 226 222 219 220 219 218 220 221 222 223 224 227 228 230 235 242 249 253 257 263 270 276 278 277 274 272 271 271 270 268 265 264 265 264 266 271 275 280 284 286 288 287 286 286 285 286 290 290 290 292 293 290 288 289 292 295 295 294 293 292 293 294 294 292 291 293 294 296 297 296 296 295 296
221 219 223 232 234 233 233 232 231 232 229 226 226 222 218 218 218 219 221 223 223 224 223 226 228 230 235 241 246 251 256 260 266 272 276 277 277 277 276 273 270 266 265 266 265 264 265 269 273 276 279 281 284 285 286 286 286 289 292 290 289 290 291 288 287 288 292 294 294 293 292 290 291 293 293 292 293 294 294 296 296 295 295 295 297
219 217 218 226 232 233 232 232 232 231 229 228 228 224 219 219 219 219 221 221 223 225 224 224 226 230 235 240 244 250 253 255 258 263 269 272 275 277 278 275 271 267 265 266 268 268 268 268 272 276 279 280 281 281 280 281 282 284 286 286 286 287 287 286 287 291 294 294 293 292 290 289 289 289 290 291 292 292 293 294 294 293 293 294 296
219 219 221 224 228 231 232 232 231 231 230 230 229 225 220 219 219 218 220 222 224 224 223 225 228 230 234 239 242 246 249 253 258 264 269 272 274 277 277 276 273 270 268 267 267 268 268 268 271 275 276 277 279 278 277 278 277 275 275 276 277 279 281 284 289 294 295 295 293 290 287 288 289 289 290 291 292 292 292 293 294 293 292 293 294
219 218 221 223 227 230 231 231 232 232 231 232 231 227 222 220 218 218 222 224 225 225 225 228 233 235 237 239 241 244 248 252 257 264 269 271 273 277 279 279 276 274 272 271 270 270 269 269 270 272 273 275 277 276 276 277 277 275 273 272 273 277 281 285 289 292 292 292 291 288 287 289 291 291 291 292 293 294 294 294 295 295 294 295 296
219 217 220 223 227 230 230 231 232 231 231 233 232 227 224 222 220 219 221 223 224 226 228 230 234 238 242 247 249 249 251 254 259 264 266 268 271 275 279 280 279 278 277 274 272 271 271 271 272 273 274 274 273 273 275 276 277 278 278 276 277 281 284 287 289 289 290 291 290 288 289 291 293 292 292 295 297 296 296 297 297 296 296 297 297
218 218 220 223 226 228 228 229 230 230 232 234 230 227 225 222 220 219 220 222 224 228 232 234 235 239 244 250 254 256 257 260 265 269 269 269 270 274 277 279 280 282 282 277 271 271 274 273 271 271 272 272 271 270 272 276 279 279 276 276 280 284 287 289 289 289 291 292 292 290 290 291 294 294 293 297 302 301 299 299 298 297 296 295 293
222 222 223 223 224 225 225 227 227 227 231 233 230 229 224 217 216 218 218 222 227 233 238 239 240 243 244 246 251 256 261 264 267 270 272 272 272 272 274 277 279 281 282 279 277 279 281 279 275 274 276 277 276 272 271 276 280 276 274 278 284 288 290 290 290 291 293 295 295 291 289 291 296 294 293 298 302 300 297 296 293 292 290 288 286
224 226 226 225 225 224 223 224 222 222 227 232 231 226 218 213 216 218 218 223 229 234 235 235 240 247 251 252 253 256 261 268 273 276 277 277 276 274 274 277 280 284 286 286 284 283 283 282 282 284 284 283 281 277 276 278 278 275 276 281 286 291 291 290 289 290 292 294 295 289 285 288 291 291 292 296 298 296 293 291 288 286 285 285 285
221 225 227 226 225 223 222 222 221 220 226 230 228 219 212 212 215 216 221 227 230 230 231 232 236 242 248 254 259 264 268 272 276 279 280 279 279 277 275 277 280 284 288 288 286 283 282 282 284 287 288 285 281 277 275 275 276 277 279 283 289 292 290 287 286 288 290 291 291 288 284 286 291 293 294 295 293 289 288 287 287 288 288 287 287
220 223 228 228 224 222 223 223 222 222 226 230 230 221 211 209 210 213 220 223 222 223 227 229 229 232 242 258 274 283 284 278 275 276 278 280 282 280 278 279 282 285 287 287 284 283 284 285 287 290 292 290 284 277 272 271 273 277 281 287 292 291 285 281 283 287 288 288 292 294 289 289 293 293 292 293 290 287 287 289 290 290 290 290 291
220 224 226 225 222 221 221 219 218 222 225 228 226 211 200 205 215 217 213 207 203 208 217 221 225 231 246 269 281 281 277 273 272 273 274 276 278 278 279 281 284 285 286 287 284 282 284 286 288 289 290 290 286 280 276 276 279 282 286 289 291 288 285 286 288 289 287 290 300 302 288 285 288 289 292 299 298 294 293 293 294 294 294 295 295